THOR ABLESTAR DEB, 17713

Orbit data source: Space-Track

THOR ABLESTAR DEB, 17713 is space debris in LEO originally from a launch on Thu, 29 Jun 1961 UTC launched from the Air Force Eastern Test Range (AFETR). Debris objects in space refer to the collection of defunct objects orbiting the Earth. Examples of debris include non-operational satellites, rocket bodies, and fragments generated from explosions, collisions, or faulty payload assembly.

Loading next visibility...
Identifier
17713, 1961-015LR
Orbit
LEO
Country
Flag of USUS
Related business
Manufacturer
Unknown
Mission
Spacecraft
Bus & Motor
Unknown
Mass
Unknown
Launch date (UTC)
1961-06-29 (65 years ago)
Launch vehicle
Unknown
Launch site
Air Force Eastern Test Range (AFETR)
Object type
Payload
Rocket body
Debris
Shape & HBR
Unknown shape, 0.1 m
Radar Cross Section
Medium (>0.1 m² and <1 m²)

Expand to show TLE details & history
Last TLE update: 11 hours ago

TLE from 11 hours ago
0 THOR ABLESTAR DEB
1 17713U 61015LR  26255.79023699  .00000191  00000-0  18716-3 0  9994
2 17713  66.2097  77.4121 0058757 107.3018 267.7213 13.98738647112586
Epoch: 2026-09-12T18:57Z
TLE epoch observation values (Epoch: 2026-09-12T18:57:56.475Z)
Latitude
13.08816°
Longitude
166.98439°
Altitude
901.407 km
Speed
7.402 km/s
True Right ascension
05h 33m 03s
True Declination
13° 00' 50"
Sunlit
Object was in daylight at epoch
Visualization orbit readout
Latitude
Unknown
Longitude
Unknown
Altitude
Unknown
Speed
Unknown
Apparent Right ascension
Unknown
Apparent Declination
Unknown
Sunlit
N/A
Visualization observer readout
Local Sidereal Time
22:34:28
Azimuth
Unknown
Elevation
Unknown
Doppler factor
Unknown
Orbital elements
Apogee altitude
939.366 km
Perigee altitude
853.878 km
Semi-major axis
7,274.759 km
Eccentricity
0.00588
Inclination
66.2097°
RAAN
77.4121°
Arg. of periapsis
107.3018°
True anomaly
267.04874°
Mean anomaly
267.7213°
Eccentric anomaly
267.385°
Mean motion
3.49796 °/min
Orbital period
102.92 mins
BSTAR
0.00018716
Loading maneuver chart data...
Computing Atmospheric mass density...

Documentation

Showing up to 5 results
|